Regional Weather Roundup
Issued by NWS Mobile, AL

Home | Current Version | Previous Version | Text Only | Print | Product List | Glossary On
Versions: 1 2 3 4 5 6 7 8 9 10 11 12 13 14 15 16 17 18 19 20 21 22 23 24 25 26 27 28 29 30 31 32 33 34 35 36 37 38 39 40 41 42 43 44 45 46 47 48 49 50
000
ASUS44 KMOB 061316
RWRMOB
REGIONAL WEATHER ROUNDUP
NATIONAL WEATHER SERVICE MOBILE AL
800 AM CDT MON JUL 06 2015

ALZ061>064-061400-
COASTAL ALABAMA


CITY           SKY/WX    TMP DP  RH WIND       PRES   REMARKS
MOBILE REG APT NOT AVBL
BROOKLEY FIELD NOT AVBL
GULF SHORES    NOT AVBL

$$

ALZ051>060-061400-
INTERIOR SOUTHWEST AND SOUTH CENTRAL ALABAMA


CITY           SKY/WX    TMP DP  RH WIND       PRES   REMARKS
ANDALUSIA/OPP  MOSUNNY   73  66  78 NW5       30.20R
EVERGREEN      NOT AVBL
FLORALA        PTSUNNY   71  67  87 CALM      30.22R
GREENVILLE     PTSUNNY   69  66  90 CALM      30.20R

$$

FLZ001>006-061400-
WESTERN FLORIDA PANHANDLE


CITY           SKY/WX    TMP DP  RH WIND       PRES   REMARKS
CRESTVIEW      NOT AVBL
DESTIN         NOT AVBL
DUKE FIELD     FAIR      73  67  83 N2        30.19R
MARY ESTHER    CLOUDY    74  69  83 N5        30.17R
MILTON         CLOUDY    73  69  87 N3        30.20R
PENSACOLA      NOT AVBL
NAS PENSACOLA  PTSUNNY   76  72  87 NW5       30.18R
VALPARAISO     PTSUNNY   75  68  79 N5        30.18R

$$

...MARINE OBSERVATIONS...

STATION/POSITION TIME  SKY/WX   TEMP    WIND        PRES    VSBY
                                AIR SEA DIR/SP/G
                 (UTC)          (F)     (DEG/KT/KT) (MB)    (MI)
PASCAGOULA       1200            73      10/  5/  6 1021.4R
PETIT BOIS ISL   1200            82      70/  2/  3 1021.9R
E DAUPHIN ISLAND 1300            80      CALM  /  1 1022.0R
MIDDLE BAY LIGHT 1200            76     300/  5     1021.0R
USCG MOBILE BAY  1200            72 82  290/  2/  4 1020.8R
STATE DOCKS      1200            73 84              1021.4R
MEAHER PARK      1300            74     350/  3     1022.4R
FORT MORGAN      1200            78     170/  2/  3 1021.1R
12 S ORANGE BCH  1250            82 83  260/  8/ 10 1021.1R
WVE H/P(F/S)=  1/ 6

PENSACOLA BAY    1200            76 82  350/  3/  6 1021.6R
64 S DAUPHIN ISL 1250            83 84  240/  4/  6 1021.9R
WVE H/P(F/S)=  1/ 5

67 S FORT MORGAN 1230            82     230/  4     1021.3
115 SE PENSACOLA 1250            83 84  190/  6/  6 1022.0R
WVE H/P(F/S)=  1/10

MID GULF/42001   1250            85 86  140/ 12/ 14 1020.4R
WVE H/P(F/S)=  3/ 6

EAST GULF/42003  1250            84 85  100/  8/ 10 1020.4R
WVE H/P(F/S)=  2/ 8


$$

...NEARBY LOCATIONS

CITY           SKY/WX    TMP DP  RH WIND       PRES   REMARKS
GULFPORT       NOT AVBL
BILOXI         PTSUNNY   75  70  84 NE2       30.18R
PASCAGOULA     NOT AVBL
HATTIESBURG    NOT AVBL
LAUREL         NOT AVBL
MERIDIAN       NOT AVBL
MERIDIAN NAS   CLOUDY    68  67  96 W3        30.19S
MONTGOMERY     NOT AVBL
MAXWELL AFB    CLOUDY    71  68  91 SW6       30.20R
TROY           NOT AVBL
FORT RUCKER    MOSUNNY   73  68  84 NW3       30.19R
DALEVILLE      MOSUNNY   73  68  86 NW6       30.20R
DOTHAN         NOT AVBL

$$

...OTHER SURROUNDING LOCATIONS...

CITY           SKY/WX    TMP DP  RH WIND       PRES   REMARKS
BIRMINGHAM     NOT AVBL
TUSCALOOSA     NOT AVBL
COLUMBUS GA    NOT AVBL
PANAMA CITY    NOT AVBL
TALLAHASSEE    NOT AVBL
BATON ROUGE    NOT AVBL
NEW ORLEANS    NOT AVBL
SLIDELL        NOT AVBL
JACKSON        NOT AVBL
MCCOMB         NOT AVBL

$$

...SURROUNDING MARINE OBSERVATIONS...

STATION/POSITION TIME  SKY/WX   TEMP    WIND        PRES    VSBY
                                AIR SEA DIR/SP/G
                 (UTC)          (F)     (DEG/KT/KT) (MB)    (MI)
WAVELAND         1200            74 81   50/  5/  6 1021.7R
PASCAGOULA RGN A 1200            72      10/  5/  6 1021.1R
PASCAGOULA PORT  1200               81                N/A
GRAND ISLE       1200            83 85  170/  4/  6 1020.8R
SOUTHWEST PASS   1300            83     170/  7/  8 1021.8R
PILOT STATION E  1200            83 82  180/  8/  9 1021.3R
SHELL BEACH      1200            80 83  120/  4/  5 1020.7R
PANAMA CITY      1200            80 83  230/  7/  9 1021.1R
APALACHICOLA     1200            79 85  290/  2/  3 1021.2R
TYNDALL TOWER C  1300            82     240/  6/  7 1021.8R
S APLCHCLA/42036 1250            85 85  210/  6/ 10 1021.3R
WVE H/P(F/S)=  1/ 9


$$




USA.gov is the U.S. government's official web portal to all federal, state and local government web resources and services.